Regional Weather Roundup
Issued by NWS New Orleans/Baton Rouge, LA

Home | Current Version | Previous Version | Text Only | Print | Product List | Glossary On
Versions: 1 2 3 4 5 6 7 8 9 10 11 12 13 14 15 16 17 18 19 20 21 22 23 24 25 26 27 28 29 30 31 32 33 34 35 36 37 38 39 40 41 42 43 44 45 46 47 48 49 50
000
ASUS44 KLIX 040611
RWRLIX
NEW ORLEANS REGIONAL WEATHER ROUNDUP
NATIONAL WEATHER SERVICE NEW ORLEANS LA
100 AM CDT MON MAY 04 2015

NOTE: "FAIR" INDICATES FEW OR NO CLOUDS BELOW 12,000 FEET WITH NO
      SIGNIFICANT WEATHER AND/OR OBSTRUCTIONS TO VISIBILITY.
      SKY/WX - SKY CONDITION AND SIGNIFICANT WEATHER.
      TMP - AIR TEMPERATURE.     DP    - DEWPOINT TEMPERATURE.
      RH  - RELATIVE HUMIDITY.   PRES  - PRESSURE.
      HI  - HEAT INDEX.          WCI   - WIND CHILL INDEX.

*  THESE STATIONS ARE NOT NWS OR FAA STATIONS AND ARE NOT UNDER
   NWS QUALITY CONTROL.

LAZ038-040-048-061>063-065>067-069-040700-
SOUTHEAST LOUISIANA

CITY           SKY/WX    TMP DP  RH WIND       PRES   REMARKS
N.O. AUDUBON   NOT AVBL
N.O. INTL ARPT PTCLDY    65  56  72 CALM      30.11F
6HR MIN TEMP:  65; 6HR MAX TEMP:  76;

N.O. LAKEFRONT CLEAR     70  60  70 E3        30.12S
6HR MIN TEMP:  70; 6HR MAX TEMP:  77;

SLIDELL        CLEAR     58  56  93 N5        30.12S
6HR MIN TEMP:  58; 6HR MAX TEMP:  75;

BATON ROUGE    CLEAR     64  58  80 E5        30.11S
6HR MIN TEMP:  63; 6HR MAX TEMP:  77;

BOOTHVILLE     CLEAR     70  66  87 CALM      30.11F
6HR MIN TEMP:  69; 6HR MAX TEMP:  74;

BELLE CHASSE   CLEAR     59  57  93 CALM      30.11S
6HR MIN TEMP:  59; 6HR MAX TEMP:  75;

BOGALUSA*        N/A     57  53  87 CALM      30.15S
6HR MIN TEMP:  57; 6HR MAX TEMP:  78;

GALLIANO*      CLEAR     64  61  91 CALM      30.11S
6HR MIN TEMP:  63; 6HR MAX TEMP:  76;

NEW ROADS*       N/A     66  59  77 SE3       30.11S
6HR MIN TEMP:  66; 6HR MAX TEMP:  78;

GONZALES*        N/A     62  62 100 CALM      30.11S
6HR MIN TEMP:  62; 6HR MAX TEMP:  77;

HAMMOND*       CLEAR     63  55  77 CALM      30.13F
HOUMA*         CLEAR     60  58  94 CALM      30.11F
6HR MIN TEMP:  59; 6HR MAX TEMP:  74;

PORT FOURCHON* CLEAR     73  63  68 SE8       30.13S

$$

MSZ070-080>082-040700-
SOUTHERN MISSISSIPPI

CITY           SKY/WX    TMP DP  RH WIND       PRES   REMARKS
MCCOMB         CLEAR     61  54  77 SE3       30.13S
6HR MIN TEMP:  61; 6HR MAX TEMP:  76;

GULFPORT       LGT RAIN  66  61  84 CALM      30.12F
6HR MIN TEMP:  64; 6HR MAX TEMP:  74; 6HR PCP: TRACE;

BILOXI         RAIN      68  66  94 E6        30.12F FOG
6HR MIN TEMP:  67; 6HR MAX TEMP:  74; 6HR PCP:  0.07;

PASCAGOULA     MOCLDY    64  62  93 NE3       30.14S
6HR MIN TEMP:  60; 6HR MAX TEMP:  73;


$$

COASTAL OBSERVATIONS
LAKE AND NEARSHORE STATIONS

STATION/POSITION TIME  TEMP    WIND        PRES    WAVE
                       AIR SEA DIR/SP/G            HT/PER
                 (UTC) (F)     (DEG/KT/KT) (MB)    (FT/S)
PASCAGOULA       0500   74     140/ 15/ 19 1019.8
WAVELAND YACHT   0500   72 74  130/  9/ 12 1020.1
GRAND ISLE       0512   73 78  110/  6/ 10 1019.2
SOUTHWEST PASS   0512   70 66   20/  6/  8 1019.6
NEW CANAL        0512   69 76   CALM  /  1 1020.3
SHELL BEACH      0500   71 76  110/  7/  9 1019.2

OFFSHORE STATIONS

STATION/POSITION TIME  TEMP    WIND        PRES    WAVE
                       AIR SEA DIR/SP/G            HT/PER
                 (UTC) (F)     (DEG/KT/KT) (MB)    (FT/S)
64 S DAUPHIN ISL 0550   75 75  130/ 19/ 21 1019.9    5/ 6

$$



USA.gov is the U.S. government's official web portal to all federal, state and local government web resources and services.